Miscellaneous Local Product
Issued by NWS Hastings, NE

Home | Current Version | Previous Version | Graphics & Text | Print | Product List | Glossary On
Versions: 1 2 3 4 5 6 7 8 9 10 11 12 13 14 15 16 17 18 19 20 21 22 23 24 25 26 27 28 29 30 31 32 33 34 35 36 37 38 39 40 41 42 43 44 45 46 47 48 49 50
000
AXUS43 KGID 210602
MISGRI

GID CWA HOURLY WEATHER ROUNDUP
NATIONAL WEATHER SERVICE HASTINGS NE
1200 AM CST SAT JAN 21 2017

NOTE: "FAIR" INDICATES FEW OR NO CLOUDS BELOW 12,000 FEET WITH NO
SIGNIFICANT WEATHER AND/OR OBSTRUCTIONS TO VISIBILITY.

...SOUTH CENTRAL NEBRASKA...

CITY           SKY/WX    TMP DP  RH WIND       PRES   REMARKS
GRAND ISLAND   CLOUDY    37  37 100 W9        29.40R WCI  30
HASTINGS       CLOUDY    37  35  92 W6        29.40F WCI  32
KEARNEY        MOCLDY    36 N/A N/A CALM      29.40S
ORD            PTCLDY    36  34  92 SW8       29.36F WCI  30
YORK           FOG       37  37 100 W7        29.39S VSB 1/2 WCI  32
AURORA         CLOUDY    37  37 100 W7        29.39S FOG     WCI  32
LEXINGTON      CLOUDY    34  32  93 NW5       29.40S WCI  30
HOLDREGE       CLOUDY    35  34  97 W9        29.39F WCI  27
HEBRON         FOG       38  38 100 W5        29.41S VSB 1/4 WCI  34

...NEBRASKA PANHANDLE...

CITY           SKY/WX    TMP DP  RH WIND       PRES   REMARKS
CHADRON        CLOUDY    34  32  92 SW7       29.39R WCI  28
ALLIANCE       CLEAR     30  29  96 W5        29.39R WCI  25
SCOTTSBLUFF    CLEAR     29  25  85 NW3       29.41S
SIDNEY         PTCLDY    30  26  85 W9        29.42R WCI  22

...WESTERN AND NORTH CENTRAL NEBRASKA...

CITY           SKY/WX    TMP DP  RH WIND       PRES   REMARKS
VALENTINE      CLOUDY    34  29  82 SW8       29.35S WCI  27
AINSWORTH      CLOUDY    34  32  90 W7        29.35F WCI  28
ONEILL         CLOUDY    38  38  99 SW8       29.36S FOG     WCI  32
BROKEN BOW     CLOUDY    35  33  92 W3        29.37S
IMPERIAL       PTCLDY    35  32  88 N9        29.42F WCI  28
NORTH PLATTE   CLOUDY    32  30  92 NW5       29.41S WCI  27
MCCOOK         MOCLDY    35  33  92 NW8       29.43R WCI  29

...EASTERN NEBRASKA...

CITY           SKY/WX    TMP DP  RH WIND       PRES   REMARKS
NORFOLK        FOG       38  37  97 S7        29.37F VSB 1/2 WCI  33
SO SIOUX CITY  CLOUDY    39  39 100 SE6       29.40F FOG     WCI  35
TEKAMAH        FOG       38  37  97 SE6       29.39F VSB 1/4 WCI  33
COLUMBUS       CLOUDY    39  37  93 SW3       29.39F VSB 1/2
ALBION         DRZL/FOG N/A N/A N/A CALM      29.38S VSB 1/2
OMAHA EPPLEY   CLOUDY    40  37  89 CALM      29.40F FOG
MILLARD        FOG       43  42  97 CALM      29.40F VSB 1/4
LINCOLN        FOG       41  41 100 S3        29.41S VSB 1/2
NEBRASKA CITY  FOG       41  41 100 S6        29.41R VSB 1/4
BEATRICE       FOG       41  41 100 CALM      29.39S VSB 1/4
FALLS CITY     FOG       44  44 100 S7        29.41F VSB 1

...NORTHERN KANSAS...

CITY           SKY/WX    TMP DP  RH WIND       PRES   REMARKS
GOODLAND       CLEAR     32  30  92 W10       29.46S WCI  24
HILL CITY      CLOUDY    38  36  92 W9        29.45R WCI  31
NORTON         CLOUDY    36  32  87 SW8       29.42R WCI  29
PHILLIPSBURG   CLOUDY    36  36 100 W6        29.43S WCI  31
SMITH CENTER   FOG       34  34 100 SW5       29.43S VSB 1/2 WCI  30
HAYS           PTCLDY    38  35  89 W12       29.46S WCI  30
RUSSELL        CLEAR     36  34  92 W8        29.44R WCI  30
CONCORDIA      CLOUDY    43  43 100 SW8       29.42S
SALINA           N/A    N/A N/A N/A MISG        N/A
TOPEKA         FOG       39  36  89 CALM      29.42F VSB 3/4



USA.gov is the U.S. government's official web portal to all federal, state and local government web resources and services.